Weather History for KFET - October, 2012

Change the Weather History Date:

Monday, October 1, 2012

  Actual Average Record
Temperature  
Mean Temperature 58 °F -  
Max Temperature 72 °F 75 °F 91 °F (1951)
Min Temperature 44 °F 48 °F 27 °F (1985)
Degree Days  
Heating Degree Days 7    
Growing Degree Days 8 (Base 50)    
Moisture  
Dew Point 44 °F    
Average Humidity 60    
Maximum Humidity 85    
Minimum Humidity 35    
Precipitation  
Precipitation 0.00 in - - ()
Sea Level Pressure  
Sea Level Pressure 29.97 in    
Wind  
Wind Speed 6 mph (NW)    
Max Wind Speed 22 mph    
Max Gust Speed 30 mph    
Visibility 10 miles    
Events      
Averages and records for this station are not official NWS values.
T = Trace of Precipitation, MM = Missing Value Source: NWS Daily Summary

Daily Weather History Graph

Daily Weather History Graph

Search for Another Location

Airport or City:

Trip Planner

Search our weather history database for the weather conditions in past years. The results will help you decide how hot, cold, wet, or windy it might be!

Date:

Astronomy

Oct. 01, 2012 Rise Set
Actual Time 7:23 AM CDT 7:07 PM CDT
Civil Twilight 6:55 AM CDT 7:34 PM CDT
Nautical Twilight 6:23 AM CDT 8:06 PM CDT
Astronomical Twilight 5:51 AM CDT 8:38 PM CDT
Moon 7:42 PM CDT (10/1) 8:55 AM CDT (10/1)
Length of Visible Light 12h 38m
Length of Day
11h 43m
Full, 98% of the Moon is Illuminated
Oct 1
Full
Oct 8
Last Quarter
Oct 15
New
Oct 21
First Quarter
Oct 29
Full

Hourly Weather History & Observations

Time (CDT) Temp. Windchill Dew Point Humidity Pressure Visibility Wind Dir Wind Speed Gust Speed Precip Events Conditions
12:15 AM 51.8 °F - 42.8 °F 71% 29.93 in 7.0 mi Calm Calm - N/A   Clear
12:35 AM 50.4 °F - 43.0 °F 76% 29.92 in 7.0 mi West 5.8 mph - N/A   Clear
12:55 AM 50.4 °F - 42.8 °F 75% 29.92 in 7.0 mi West 3.5 mph - N/A   Clear
1:15 AM 50.9 °F - 43.2 °F 75% 29.92 in 7.0 mi Calm Calm - N/A   Clear
1:35 AM 51.8 °F - 43.5 °F 73% 29.92 in 10.0 mi WNW 3.5 mph - N/A   Clear
1:55 AM 50.9 °F - 43.3 °F 75% 29.92 in 10.0 mi WNW 4.6 mph - N/A   Clear
2:35 AM 50.0 °F - 41.4 °F 72% 29.92 in 10.0 mi WNW 3.5 mph - N/A   Clear
2:55 AM 49.5 °F - 40.6 °F 72% 29.92 in 10.0 mi WNW 4.6 mph - N/A   Clear
3:15 AM 49.1 °F - 40.5 °F 72% 29.92 in 10.0 mi WNW 5.8 mph - N/A   Clear
3:35 AM 48.7 °F - 39.9 °F 72% 29.91 in 10.0 mi WNW 3.5 mph - N/A   Clear
3:55 AM 48.2 °F - 39.9 °F 73% 29.91 in 10.0 mi WNW 4.6 mph - N/A   Clear
4:15 AM 48.0 °F - 40.5 °F 75% 29.90 in 10.0 mi Calm Calm - N/A   Clear
4:35 AM 48.0 °F - 41.2 °F 77% 29.90 in 10.0 mi WNW 4.6 mph - N/A   Clear
4:55 AM 47.7 °F - 40.6 °F 77% 29.90 in 10.0 mi Calm Calm - N/A   Clear
5:15 AM 47.3 °F - 40.3 °F 77% 29.91 in 10.0 mi NW 3.5 mph - N/A   Clear
5:35 AM 46.0 °F 44.8 °F 40.1 °F 80% 29.91 in 10.0 mi WNW 3.5 mph - N/A   Clear
5:55 AM 46.4 °F 43.5 °F 40.5 °F 80% 29.91 in 10.0 mi WNW 5.8 mph - N/A   Clear
6:15 AM 45.5 °F 43.2 °F 40.5 °F 83% 29.91 in 10.0 mi West 4.6 mph - N/A   Clear
6:35 AM 44.6 °F 40.7 °F 40.5 °F 85% 29.92 in 10.0 mi West 6.9 mph - N/A   Clear
7:15 AM 51.1 °F - 41.9 °F 71% 29.94 in 10.0 mi NNW 4.6 mph - N/A   Clear
7:35 AM 54.5 °F - 43.7 °F 67% 29.95 in 10.0 mi NNW 5.8 mph - N/A   Clear
7:55 AM 54.9 °F - 44.8 °F 69% 29.96 in 10.0 mi NNW 10.4 mph - N/A   Clear
8:15 AM 56.5 °F - 45.0 °F 65% 29.97 in 10.0 mi NW 11.5 mph - N/A   Clear
8:35 AM 59.0 °F - 45.7 °F 61% 29.98 in 10.0 mi NW 11.5 mph - N/A   Clear
8:55 AM 61.0 °F - 47.3 °F 61% 29.98 in 10.0 mi NW 6.9 mph - N/A   Clear
9:15 AM 64.9 °F - 50.0 °F 58% 29.99 in 10.0 mi NNW 15.0 mph 19.6 mph N/A   Clear
9:35 AM 66.9 °F - 50.9 °F 56% 29.99 in 10.0 mi NNW 12.7 mph 23.0 mph N/A   Clear
9:55 AM 69.1 °F - 50.9 °F 52% 29.99 in 10.0 mi NNW 10.4 mph 24.2 mph N/A   Clear
10:15 AM 69.8 °F - 50.4 °F 50% 29.99 in 10.0 mi NNW 15.0 mph 20.7 mph N/A   Scattered Clouds
10:35 AM 72.0 °F - 49.8 °F 46% 29.99 in 10.0 mi NNW 20.7 mph 28.8 mph N/A   Scattered Clouds
10:55 AM 70.7 °F - 50.2 °F 48% 30.00 in 10.0 mi NNW 15.0 mph 26.5 mph N/A   Scattered Clouds
11:15 AM 68.9 °F - 51.4 °F 54% 30.01 in 10.0 mi NNW 17.3 mph 25.3 mph N/A   Mostly Cloudy
11:35 AM 67.6 °F - 51.3 °F 56% 30.01 in 10.0 mi NNW 12.7 mph 23.0 mph N/A   Mostly Cloudy
12:15 PM 68.5 °F - 52.0 °F 55% 30.01 in 10.0 mi NNW 18.4 mph 26.5 mph N/A   Mostly Cloudy
12:35 PM 67.8 °F - 51.8 °F 56% 30.01 in 10.0 mi NNW 18.4 mph 26.5 mph N/A   Scattered Clouds
1:15 PM 67.3 °F - 51.4 °F 57% 30.01 in 10.0 mi NNW 19.6 mph 24.2 mph N/A   Scattered Clouds
1:35 PM 66.6 °F - 49.3 °F 54% 30.01 in 10.0 mi NW 21.9 mph 29.9 mph N/A   Scattered Clouds
1:55 PM 66.0 °F - 48.2 °F 53% 30.01 in 10.0 mi NNW 16.1 mph 25.3 mph N/A   Scattered Clouds
2:15 PM 67.3 °F - 48.0 °F 50% 30.00 in 10.0 mi NNW 16.1 mph 24.2 mph N/A   Scattered Clouds
2:55 PM 66.4 °F - 45.7 °F 47% 30.01 in 10.0 mi NNW 15.0 mph 21.9 mph N/A   Mostly Cloudy
3:15 PM 66.9 °F - 44.2 °F 44% 30.00 in 10.0 mi NNW 15.0 mph 24.2 mph N/A   Mostly Cloudy
3:35 PM 68.2 °F - 44.6 °F 43% 29.99 in 10.0 mi NNW 11.5 mph 19.6 mph N/A   Overcast
4:15 PM 70.7 °F - 45.0 °F 40% 29.98 in 10.0 mi NNW 8.1 mph - N/A   Mostly Cloudy
4:35 PM 72.5 °F - 43.0 °F 35% 29.98 in 10.0 mi NNW 12.7 mph 28.8 mph N/A   Scattered Clouds
5:15 PM 70.9 °F - 43.0 °F 37% 29.99 in 10.0 mi NNW 11.5 mph 23.0 mph N/A   Mostly Cloudy
5:35 PM 69.8 °F - 42.6 °F 37% 29.99 in 10.0 mi NNW 12.7 mph 17.3 mph N/A   Scattered Clouds
6:15 PM 70.0 °F - 42.1 °F 36% 29.99 in 10.0 mi NNW 11.5 mph 16.1 mph N/A   Clear
6:35 PM 69.1 °F - 41.7 °F 37% 29.99 in 10.0 mi NNW 10.4 mph 17.3 mph N/A   Clear
6:55 PM 68.0 °F - 41.5 °F 38% 29.99 in 10.0 mi NNW 6.9 mph - N/A   Clear
7:15 PM 66.2 °F - 41.4 °F 40% 29.99 in 10.0 mi NNW 6.9 mph - N/A   Clear
7:35 PM 63.9 °F - 41.5 °F 44% 29.99 in 10.0 mi NNW 5.8 mph - N/A   Clear
7:55 PM 61.9 °F - 41.5 °F 47% 29.99 in 10.0 mi NW 4.6 mph - N/A   Clear
8:15 PM 59.9 °F - 41.9 °F 51% 30.00 in 10.0 mi NW 4.6 mph - N/A   Clear
8:35 PM 56.8 °F - 41.2 °F 56% 30.00 in 10.0 mi NW 4.6 mph - N/A   Clear
8:55 PM 54.9 °F - 41.0 °F 60% 30.00 in 10.0 mi NW 4.6 mph - N/A   Clear
9:15 PM 54.7 °F - 41.0 °F 60% 30.01 in 10.0 mi NW 4.6 mph - N/A   Clear
9:35 PM 56.3 °F - 40.8 °F 56% 30.01 in 10.0 mi NW 4.6 mph - N/A   Clear
9:55 PM 52.2 °F - 40.3 °F 64% 30.01 in 10.0 mi NW 3.5 mph - N/A   Clear
10:15 PM 51.1 °F - 39.6 °F 65% 30.01 in 10.0 mi Calm Calm - N/A   Clear
10:35 PM 50.4 °F - 39.6 °F 66% 30.01 in 10.0 mi NW 5.8 mph - N/A   Clear
10:55 PM 49.8 °F - 39.6 °F 68% 30.02 in 10.0 mi WNW 3.5 mph - N/A   Clear
11:15 PM 48.6 °F - 39.2 °F 70% 30.02 in 10.0 mi Calm Calm - N/A   Clear
11:35 PM 45.0 °F 42.6 °F 38.3 °F 77% 30.02 in 10.0 mi West 4.6 mph - N/A   Clear
11:55 PM 45.7 °F 44.4 °F 38.3 °F 75% 30.02 in 10.0 mi West 3.5 mph - N/A   Clear